Regional Weather Roundup
Issued by NWS

Home | Current Version | Previous Version | Text Only | Print | Product List | Glossary On
Versions: 1 2 3 4 5 6 7 8 9 10 11 12 13 14 15 16 17 18 19 20 21 22 23 24 25 26 27 28 29 30 31 32 33 34 35 36 37 38 39 40 41 42 43 44 45 46 47 48 49 50
000
ASUS45 KABQ 271310
RWRNM
WEATHER ROUNDUP FOR NEW MEXICO
NATIONAL WEATHER SERVICE ALBUQUERQUE NM
600 AM MST THU NOV 27 2014

NOTE: "FAIR" MEANS FEW OR NO CLOUDS BELOW 12,000 FEET AGL WITH NO
       SIGNIFICANT WEATHER OR OBSTRUCTIONS TO VISION.

      THIS PRODUCT IS RELEASED AS TWO VERSIONS.  ONE VERSION NEAR
      THE TOP OF THE HOUR CONTAINING PRELIMINARY DATA FROM ALBUQUERQUE
      AND OTHER STATIONS.  A FINAL VERSION WITH ADDITIONAL DATA IS
      ISSUED ABOUT 10 MINUTES AFTER THE HOUR.

NMZ501-503-504-510>518-271400-
NORTHWEST PLATEAU/NORTHCENTRAL MOUNTAINS

CITY           SKY/WX    TMP DP  RH WIND       PRES   REMARKS
FARMINGTON     CLEAR     27  20  75 E8        30.47R WCI  19
LOS ALAMOS     CLEAR     32  22  66 N3        30.48R
SANTA FE       PTCLDY    29  21  72 N9        30.45R WCI  20
TAOS           PTCLDY    21  18  86 CALM      30.50R
ANGEL FIRE     PTSUNNY    2  -3  81 CALM      30.51S

$$
NMZ402-403-502-505>509-271400-
WESTCENTRAL MOUNTAINS/SOUTHWEST MOUNTAINS

CITY           SKY/WX    TMP DP  RH WIND       PRES   REMARKS
GALLUP         CLOUDY    17  10  74 CALM      30.49S
GRANTS         PTCLDY    18  12  79 NW6       30.51S WCI   9
SILVER CITY    PTCLDY    36  18  48 N14       30.43R WCI  27

$$
NMZ407-409-411-412-271400-
SOUTHERN DESERTS

CITY           SKY/WX    TMP DP  RH WIND       PRES   REMARKS
LORDSBURG      FAIR      30  14  51 S3        30.39R
DEMING         MOCLDY    30  18  60 NW5       30.39R WCI  25
LAS CRUCES     MOCLDY    37  20  52 N5        30.40R WCI  33
HOLLOMAN AFB   MOCLDY    28  17  62 VRB1      30.39R
ALAMOGORDO     PTCLDY    34  19  55 MISG      30.40R
T OR C         PTCLDY    34  18  52 CALM      30.42R

$$
NMZ519>523-271400-
CENTRAL VALLEYS/CENTRAL HIGHLANDS

CITY           SKY/WX    TMP DP  RH WIND       PRES   REMARKS
ALBUQUERQUE    PTCLDY    36  22  56 NW5       30.45R WCI  32
DOUBLE EAGLE   CLEAR     30  19  64 N5        30.46R WCI  25
MORIARTY ARPT  FAIR      20  17  88 N7        30.45R WCI  11
CLINES CORNERS CLEAR     31  21  66 NW15      30.41R WCI  20
BELEN          FAIR      28  18  64 NW6       30.46R WCI  22
SOCORRO        FAIR      34  20  56 NW13      30.43R WCI  25

$$
NMZ524>526-539-540-271400-
SOUTHCENTRAL MOUNTAINS

CITY           SKY/WX    TMP DP  RH WIND       PRES   REMARKS
RUIDOSO        CLEAR     36  18  48 CALM      30.47R

$$
NMZ527>531-271400-
NORTHEAST HIGHLANDS/NORTHEAST PLAINS

CITY           SKY/WX    TMP DP  RH WIND       PRES   REMARKS
LAS VEGAS      CLEAR     40  12  32 N5        30.40R
RATON          PTCLDY    21  17  84 NE6       30.37S WCI  13
CLAYTON        MOCLDY    32  24  72 SW10      30.33S WCI  24

$$
NMZ532>537-271400-
EASTCENTRAL PLAINS

CITY           SKY/WX    TMP DP  RH WIND       PRES   REMARKS
TUCUMCARI      CLEAR     29  24  82 W8        30.39R WCI  21
CANNON AFB     PTCLDY    31  25  77 W6        30.42S WCI  25
CLOVIS AIRPORT PTCLDY    28  21  74 SW10      30.42R WCI  19

$$
NMZ028-029-538-271400-
SOUTHEAST PLAINS

CITY           SKY/WX    TMP DP  RH WIND       PRES   REMARKS
ROSWELL        PTCLDY    30  23  75 W5        30.43R WCI  25
CARLSBAD       CLEAR     32  26  78 SW5       30.43R WCI  27
HOBBS          CLEAR     28  27  93 CALM      30.45R


$$



USA.gov is the U.S. government's official web portal to all federal, state and local government web resources and services.